Location: Newark
(54.3386°S, 169.8415°W)
Time: 05:58:01
(UTC+00:00)

Transit 2A Rocket - Pass Details

Date: 24 October 2019
Orbit: 594 x 909 km, 66.7° (Epoch: 17 November)

Event Time Altitude Azimuth Distance (km) Brightness Sun altitude
Rises 11:47:58 0° 223° (SW) 3,543 8.9 -23.2°
Reaches altitude 10° 11:50:31 10° 226° (SW) 2,615 8.1 -23.2°
Maximum altitude 11:56:31 57° 302° (WNW) 1,076 5.4 -23.0°
Enters shadow 11:57:37 50° 341° (NNW) 1,161 5.4 -22.9°
Drops below altitude 10° 12:02:25 10° 19° (NNE) 2,573 - -22.7°
Sets 12:04:55 0° 23° (NNE) 3,482 - -22.6°
